Weather History for KVKS - May, 2014

Change the Weather History Date:

Thursday, May 8, 2014

  Actual Average (KTVR) Record (KTVR)
Temperature  
Mean Temperature 76 °F 71 °F  
Max Temperature 84 °F 82 °F 91 °F (2002)
Min Temperature 68 °F 60 °F 44 °F (1982)
Degree Days  
Heating Degree Days 0 1  
Month to date heating degree days 8  
Since 1 July heating degree days 2349  
Cooling Degree Days 11 6  
Month to date cooling degree days 44  
Year to date cooling degree days 162  
Growing Degree Days 26 (Base 50)    
Moisture  
Dew Point 66 °F    
Average Humidity 73    
Maximum Humidity 94    
Minimum Humidity 54    
Precipitation  
Precipitation 0.00 in 0.18 in 1.52 in (1991)
Month to date precipitation 1.42  
Year to date precipitation 21.76  
Sea Level Pressure  
Sea Level Pressure 30.01 in    
Wind  
Wind Speed 8 mph (SSE)    
Max Wind Speed 14 mph    
Max Gust Speed 21 mph    
Visibility 10 miles    
Events      
T = Trace of Precipitation, MM = Missing Value Source: NWS Daily Summary

Daily Weather History Graph

Daily Weather History Graph

Search for Another Location

Airport or City:

Trip Planner

Search our weather history database for the weather conditions in past years. The results will help you decide how hot, cold, wet, or windy it might be!

Date:

Astronomy

May. 08, 2014 Rise Set
Actual Time 6:11 AM CDT 7:49 PM CDT
Civil Twilight 5:44 AM CDT 8:16 PM CDT
Nautical Twilight 5:12 AM CDT 8:48 PM CDT
Astronomical Twilight 4:39 AM CDT 9:21 PM CDT
Moon 2:10 PM CDT (5/8) 2:20 AM CDT (5/8)
Length of Visible Light 14h 31m
Length of Day
13h 38m
Waxing Gibbous, 65% of the Moon is Illuminated
May 8
Waxing Gibbous
May 14
Full
May 21
Last Quarter
May 28
New
Jun 5
First Quarter

Hourly Weather History & Observations

Time (CDT) Temp. Heat Index Dew Point Humidity Pressure Visibility Wind Dir Wind Speed Gust Speed Precip Events Conditions
12:15 AM 73.4 °F - 64.4 °F 73% 30.01 in 10.0 mi SSE 10.4 mph 16.1 mph N/A   Clear
12:35 AM 71.6 °F - 64.4 °F 78% 30.01 in 10.0 mi SSE 9.2 mph 15.0 mph N/A   Clear
12:55 AM 71.6 °F - 64.4 °F 78% 30.01 in 10.0 mi South 10.4 mph 17.3 mph N/A   Clear
1:15 AM 71.6 °F - 64.4 °F 78% 30.00 in 10.0 mi SSE 6.9 mph 16.1 mph N/A   Clear
1:35 AM 71.6 °F - 66.2 °F 83% 29.99 in 10.0 mi SSE 9.2 mph 15.0 mph N/A   Clear
1:55 AM 71.6 °F - 66.2 °F 83% 30.00 in 10.0 mi SSE 8.1 mph 15.0 mph N/A   Clear
2:15 AM 71.6 °F - 66.2 °F 83% 30.01 in 10.0 mi South 6.9 mph 13.8 mph N/A   Clear
2:35 AM 69.8 °F - 66.2 °F 88% 30.02 in 10.0 mi South 6.9 mph - N/A   Partly Cloudy
2:55 AM 69.8 °F - 66.2 °F 88% 30.02 in 10.0 mi SSE 6.9 mph 13.8 mph N/A   Mostly Cloudy
3:15 AM 69.8 °F - 66.2 °F 88% 30.02 in 10.0 mi SSE 5.8 mph 13.8 mph N/A   Overcast
3:35 AM 69.8 °F - 66.2 °F 88% 30.02 in 10.0 mi SSE 5.8 mph - N/A   Overcast
3:55 AM 69.8 °F - 66.2 °F 88% 30.02 in 10.0 mi SSE 6.9 mph - N/A   Mostly Cloudy
4:15 AM 69.8 °F - 66.2 °F 88% 30.02 in 10.0 mi SSE 5.8 mph - N/A   Mostly Cloudy
4:35 AM 68.0 °F - 66.2 °F 94% 30.02 in 10.0 mi SSE 4.6 mph - N/A   Mostly Cloudy
4:55 AM 68.0 °F - 66.2 °F 94% 30.02 in 10.0 mi SSE 4.6 mph - N/A   Scattered Clouds
5:15 AM 68.0 °F - 66.2 °F 94% 30.02 in 10.0 mi SSE 5.8 mph - N/A   Clear
5:35 AM 68.0 °F - 66.2 °F 94% 30.03 in 10.0 mi SSE 5.8 mph - N/A   Clear
5:55 AM 68.0 °F - 66.2 °F 94% 30.04 in 10.0 mi SE 4.6 mph - N/A   Clear
6:15 AM 68.0 °F - 66.2 °F 94% 30.04 in 9.0 mi SE 4.6 mph - N/A   Clear
6:35 AM 68.0 °F - 66.2 °F 94% 30.04 in 9.0 mi SE 5.8 mph - N/A   Clear
6:55 AM 68.0 °F - 66.2 °F 94% 30.05 in 9.0 mi SE 4.6 mph - N/A   Clear
7:15 AM 69.8 °F - 66.2 °F 88% 30.06 in 10.0 mi SSE 5.8 mph - N/A   Clear
7:35 AM 69.8 °F - 68.0 °F 94% 30.06 in 10.0 mi SSE 6.9 mph 12.7 mph N/A   Clear
7:55 AM 71.6 °F - 68.0 °F 88% 30.07 in 10.0 mi SSE 8.1 mph - N/A   Scattered Clouds
8:15 AM 71.6 °F - 68.0 °F 88% 30.07 in 10.0 mi SE 6.9 mph - N/A   Mostly Cloudy
8:35 AM 73.4 °F - 68.0 °F 83% 30.08 in 10.0 mi SE 6.9 mph - N/A   Scattered Clouds
8:55 AM 73.4 °F - 68.0 °F 83% 30.08 in 10.0 mi SSE 11.5 mph - N/A   Clear
9:15 AM 75.2 °F - 66.2 °F 73% 30.07 in 10.0 mi SSE 10.4 mph - N/A   Clear
9:35 AM 77.0 °F - 68.0 °F 74% 30.08 in 10.0 mi SSE 11.5 mph 20.7 mph N/A   Clear
9:55 AM 77.0 °F - 66.2 °F 69% 30.08 in 10.0 mi South 13.8 mph - N/A   Clear
10:15 AM 77.0 °F - 66.2 °F 69% 30.07 in 9.0 mi South 12.7 mph - N/A   Clear
10:35 AM 78.8 °F - 66.2 °F 65% 30.07 in 10.0 mi SSE 8.1 mph 16.1 mph N/A   Partly Cloudy
10:55 AM 78.8 °F - 68.0 °F 69% 30.07 in 10.0 mi SSE 10.4 mph 16.1 mph N/A   Partly Cloudy
11:15 AM 80.6 °F 82.7 °F 66.2 °F 61% 30.06 in 10.0 mi SSE 10.4 mph 17.3 mph N/A   Scattered Clouds
11:55 AM 80.6 °F 82.7 °F 66.2 °F 61% 30.05 in 10.0 mi SE 8.1 mph - N/A   Clear
12:15 PM 82.4 °F 85.4 °F 68.0 °F 62% 30.04 in 10.0 mi SE 9.2 mph - N/A   Clear
12:35 PM 82.4 °F 85.4 °F 68.0 °F 62% 30.03 in 10.0 mi SSE 9.2 mph 18.4 mph N/A   Clear
12:55 PM 84.2 °F 86.6 °F 66.2 °F 55% 30.02 in 10.0 mi South 11.5 mph 18.4 mph N/A   Clear
1:15 PM 84.2 °F 86.6 °F 66.2 °F 55% 30.02 in 10.0 mi South 12.7 mph 18.4 mph N/A   Clear
1:35 PM 82.4 °F 83.9 °F 64.4 °F 54% 30.01 in 10.0 mi SE 11.5 mph 19.6 mph N/A   Clear
1:55 PM 82.4 °F 83.9 °F 64.4 °F 54% 30.01 in 10.0 mi South 10.4 mph 18.4 mph N/A   Clear
2:15 PM 82.4 °F 83.9 °F 64.4 °F 54% 30.01 in 10.0 mi SE 8.1 mph 16.1 mph N/A   Clear
2:35 PM 82.4 °F 83.9 °F 64.4 °F 54% 30.00 in 10.0 mi SSE 8.1 mph 15.0 mph N/A   Clear
2:55 PM 82.4 °F 83.9 °F 64.4 °F 54% 29.99 in 10.0 mi SSE 8.1 mph 16.1 mph N/A   Clear
3:35 PM 80.6 °F 82.7 °F 66.2 °F 61% 29.99 in 10.0 mi SSE 5.8 mph - N/A   Clear
3:55 PM 80.6 °F 82.7 °F 66.2 °F 61% 29.98 in 10.0 mi South 6.9 mph - N/A   Clear
4:15 PM 80.6 °F 82.7 °F 66.2 °F 61% 29.98 in 10.0 mi South 5.8 mph - N/A   Clear
4:35 PM 80.6 °F 82.3 °F 64.4 °F 58% 29.98 in 10.0 mi SSE 8.1 mph - N/A   Clear
4:55 PM 80.6 °F 82.7 °F 66.2 °F 61% 29.98 in 10.0 mi SSE 5.8 mph 13.8 mph N/A   Clear
5:15 PM 80.6 °F 82.3 °F 64.4 °F 58% 29.98 in 10.0 mi SSE 10.4 mph - N/A   Clear
5:35 PM 80.6 °F 82.3 °F 64.4 °F 58% 29.98 in 10.0 mi South 9.2 mph - N/A   Clear
5:55 PM 80.6 °F 82.3 °F 64.4 °F 58% 29.98 in 10.0 mi South 8.1 mph - N/A   Clear
6:15 PM 78.8 °F - 64.4 °F 61% 29.97 in 10.0 mi SSE 6.9 mph - N/A   Clear
6:35 PM 78.8 °F - 64.4 °F 61% 29.96 in 10.0 mi SSE 6.9 mph 12.7 mph N/A   Clear
6:55 PM 78.8 °F - 64.4 °F 61% 29.96 in 10.0 mi SSE 5.8 mph - N/A   Clear
7:15 PM 78.8 °F - 64.4 °F 61% 29.96 in 10.0 mi SSE 6.9 mph - N/A   Clear
7:35 PM 78.8 °F - 64.4 °F 61% 29.97 in 10.0 mi South 6.9 mph - N/A   Clear
7:55 PM 78.8 °F - 64.4 °F 61% 29.96 in 10.0 mi SSE 5.8 mph 12.7 mph N/A   Clear
8:15 PM 77.0 °F - 64.4 °F 65% 29.98 in 10.0 mi SSE 6.9 mph 13.8 mph N/A   Clear
8:35 PM 77.0 °F - 64.4 °F 65% 29.98 in 10.0 mi SSE 8.1 mph - N/A   Partly Cloudy
8:55 PM 77.0 °F - 64.4 °F 65% 29.98 in 10.0 mi SSE 11.5 mph 19.6 mph N/A   Partly Cloudy
9:15 PM 77.0 °F - 64.4 °F 65% 29.99 in 10.0 mi South 13.8 mph 19.6 mph N/A   Scattered Clouds
9:35 PM 77.0 °F - 66.2 °F 69% 30.00 in 10.0 mi South 8.1 mph - N/A   Mostly Cloudy
9:55 PM 77.0 °F - 66.2 °F 69% 30.00 in 10.0 mi SSE 8.1 mph - N/A   Mostly Cloudy
10:15 PM 77.0 °F - 66.2 °F 69% 29.99 in 10.0 mi SSE 8.1 mph 17.3 mph N/A   Mostly Cloudy
10:35 PM 77.0 °F - 66.2 °F 69% 29.99 in 10.0 mi SSE 10.4 mph 16.1 mph N/A   Overcast
10:55 PM 75.2 °F - 66.2 °F 73% 29.98 in 10.0 mi Variable 5.8 mph 12.7 mph N/A   Scattered Clouds
11:15 PM 75.2 °F - 66.2 °F 73% 29.99 in 10.0 mi South 8.1 mph - N/A   Partly Cloudy
11:35 PM 75.2 °F - 68.0 °F 78% 29.99 in 10.0 mi South 10.4 mph - N/A   Scattered Clouds